Hoonah, AK

12:00 PM AKDT on March 25, 2017 (GMT -0800)
Hoonah

Weather History for PAOH - October, 2013

Change the Weather History Date:

Saturday, October 26, 2013

  Actual Average Record
Temperature  
Mean Temperature 42 °F -  
Max Temperature 52 °F 41 °F 52 °F (2013)
Min Temperature 32 °F 34 °F 20 °F (2012)
Degree Days  
Heating Degree Days 22    
Moisture  
Dew Point 43 °F    
Average Humidity 97    
Maximum Humidity 100    
Minimum Humidity 80    
Precipitation  
Precipitation 0.04 in - - ()
Sea Level Pressure  
Sea Level Pressure 30.32 in    
Wind  
Wind Speed 3 mph (East)    
Max Wind Speed 8 mph    
Max Gust Speed -    
Visibility 8 miles    
Events Rain    
Averages and records for this station are not official NWS values.
T = Trace of Precipitation, MM = Missing Value Source: NWS Daily Summary

Daily Weather History Graph

Daily Weather History Graph

Search for Another Location

Airport or City:

Trip Planner

Search our weather history database for the weather conditions in past years. The results will help you decide how hot, cold, wet, or windy it might be!

Date:

Astronomy

Oct. 26, 2013 Rise Set
Actual Time 8:03 AM AKDT 5:26 PM AKDT
Civil Twilight 7:21 AM AKDT 6:08 PM AKDT
Nautical Twilight 6:35 AM AKDT 6:54 PM AKDT
Astronomical Twilight 5:50 AM AKDT 7:39 PM AKDT
Moon 11:45 PM AKDT (10/26) 2:33 PM AKDT (10/26)
Length of Visible Light 10h 46m
Length of Day
9h 23m
Waning Gibbous, 51% of the Moon is Illuminated
Oct 26
Waning Gibbous
Oct 26
Last Quarter
Nov 3
New
Nov 9
First Quarter
Nov 17
Full

Hourly Weather History & Observations

Time (AKDT) Temp. Windchill Dew Point Humidity Pressure Visibility Wind Dir Wind Speed Gust Speed Precip Events Conditions
12:56 AM 48.2 °F - 48.2 °F 100% 30.08 in 9.0 mi East 6.9 mph - N/A Rain Light Rain
1:56 AM 48.9 °F - 47.8 °F 96% 30.08 in 7.0 mi ENE 5.8 mph - 0.02 in Rain Light Rain
2:56 AM 47.8 °F - 47.8 °F 100% 30.07 in 10.0 mi ENE 4.6 mph - 0.00 in   Overcast
3:56 AM 46.4 °F - 46.4 °F 100% 30.06 in 5.0 mi Calm Calm - N/A Rain Light Rain
4:29 AM 48.2 °F - 48.2 °F 100% 30.08 in 3.0 mi Calm Calm - 0.02 in Rain Light Rain
4:56 AM 46.9 °F - 46.9 °F 100% 30.08 in 9.0 mi Calm Calm - 0.02 in   Overcast
5:43 AM 46.4 °F 44.3 °F 46.4 °F 100% 30.07 in 6.0 mi West 4.6 mph - 0.00 in   Scattered Clouds
5:56 AM 46.9 °F - 46.9 °F 100% 30.09 in 8.0 mi Variable 4.6 mph - 0.00 in   Partly Cloudy
6:35 AM 48.2 °F - 46.4 °F 93% 30.11 in 10.0 mi NW 8.1 mph - N/A   Mostly Cloudy
6:56 AM 45.9 °F 42.9 °F 45.0 °F 97% 30.12 in 10.0 mi Variable 5.8 mph - N/A   Partly Cloudy
7:56 AM 41.9 °F - 41.9 °F 100% 30.16 in 10.0 mi Calm Calm - N/A   Clear
8:56 AM 39.9 °F 37.8 °F 39.9 °F 100% 30.18 in 4.0 mi ESE 3.5 mph - N/A   Mostly Cloudy
9:56 AM 41.9 °F - 41.9 °F 100% 30.22 in 10.0 mi Calm Calm - N/A   Overcast
10:56 AM 45.9 °F 44.6 °F 45.9 °F 100% 30.25 in 9.0 mi Variable 3.5 mph - 0.00 in   Overcast
11:56 AM 46.9 °F - 46.9 °F 100% 30.29 in 10.0 mi Calm Calm - 0.00 in   Overcast
12:56 PM 50.9 °F - 45.9 °F 83% 30.32 in 10.0 mi West 5.8 mph - N/A   Scattered Clouds
1:56 PM 52.0 °F - 45.9 °F 80% 30.34 in 10.0 mi SW 5.8 mph - N/A   Scattered Clouds
2:56 PM 50.9 °F - 46.9 °F 86% 30.37 in 10.0 mi West 3.5 mph - N/A   Clear
3:56 PM 50.0 °F - 45.9 °F 86% 30.39 in 10.0 mi Calm Calm - N/A   Clear
4:56 PM 46.9 °F - 45.9 °F 96% 30.42 in 10.0 mi Calm Calm - N/A   Clear
5:56 PM 43.0 °F - 43.0 °F 100% 30.46 in 1.0 mi Calm Calm - N/A   Clear
6:04 PM 42.8 °F 39.3 °F 42.8 °F 100% 30.46 in 0.8 mi East 5.8 mph - N/A   Mist
6:12 PM 41.0 °F 39.0 °F 41.0 °F 100% 30.46 in 1.2 mi East 3.5 mph - N/A   Mostly Cloudy
6:14 PM 41.0 °F 38.0 °F 41.0 °F 100% 30.46 in 2.0 mi East 4.6 mph - N/A   Partly Cloudy
6:26 PM 41.0 °F - 41.0 °F 100% 30.47 in 5.0 mi Calm Calm - N/A   Partly Cloudy
6:56 PM 39.9 °F - 39.9 °F 100% 30.50 in 9.0 mi Calm Calm - N/A   Clear
7:56 PM 37.9 °F - 37.9 °F 100% 30.53 in 10.0 mi Calm Calm - N/A   Clear
8:56 PM 36.9 °F - 36.9 °F 100% 30.55 in 7.0 mi Calm Calm - N/A   Clear
9:56 PM 34.9 °F - 34.9 °F 100% 30.57 in 7.0 mi Calm Calm - N/A   Clear
10:15 PM 35.6 °F 32.8 °F 35.6 °F 100% 30.57 in 6.0 mi ENE 3.5 mph - N/A   Scattered Clouds
10:56 PM 34.9 °F 32.0 °F 34.9 °F 100% 30.58 in 10.0 mi SE 3.5 mph - N/A   Clear
11:17 PM 33.8 °F - 33.8 °F 100% 30.58 in 9.0 mi Calm Calm - N/A   Partly Cloudy
11:56 PM 32.9 °F - 32.9 °F 100% 30.59 in 10.0 mi Calm Calm - N/A   Clear